Milledgeville, GA

1:19 PM EDT on April 24, 2017 (GMT -0400)
Baldwin County

Weather History for KMLJ - April, 2014

Change the Weather History Date:

Thursday, April 24, 2014

  Actual Average (KOKZ) Record (KOKZ)
Temperature  
Mean Temperature 66 °F -  
Max Temperature 86 °F 77 °F 82 °F (2016)
Min Temperature 46 °F 52 °F 48 °F (2015)
Cooling Degree Days 1    
Growing Degree Days 16 (Base 50)    
Moisture  
Dew Point 39 °F    
Average Humidity 53    
Maximum Humidity 100    
Minimum Humidity 8    
Precipitation  
Precipitation 0.00 in - - ()
Sea Level Pressure  
Sea Level Pressure 29.97 in    
Wind  
Wind Speed 1 mph (NE)    
Max Wind Speed 7 mph    
Max Gust Speed -    
Visibility 10 miles    
Events      
Averages and records for this station are not official NWS values.
T = Trace of Precipitation, MM = Missing Value Source: NWS Daily Summary

Daily Weather History Graph

Daily Weather History Graph

Search for Another Location

Airport or City:

Trip Planner

Search our weather history database for the weather conditions in past years. The results will help you decide how hot, cold, wet, or windy it might be!

Date:

Astronomy

Apr. 24, 2014 Rise Set
Actual Time 6:52 AM EDT 8:10 PM EDT
Civil Twilight 6:26 AM EDT 8:36 PM EDT
Nautical Twilight 5:55 AM EDT 9:07 PM EDT
Astronomical Twilight 5:23 AM EDT 9:39 PM EDT
Moon 3:47 AM EDT 3:38 PM EDT
Length of Visible Light 14h 09m
Length of Day
13h 17m
Waning Crescent, 24% of the Moon is Illuminated
Apr 24
Waning Crescent
Apr 29
New
May 6
First Quarter
May 14
Full
May 21
Last Quarter

Hourly Weather History & Observations

Time (EDT) Temp. Dew Point Humidity Pressure Visibility Wind Dir Wind Speed Gust Speed Precip Events Conditions
12:15 AM 53.6 °F 41.0 °F 62% 29.94 in 10.0 mi Calm Calm - N/A   Clear
12:35 AM 53.6 °F 42.8 °F 67% 29.94 in 10.0 mi Calm Calm - N/A   Clear
12:55 AM 53.6 °F 42.8 °F 67% 29.95 in 10.0 mi Calm Calm - N/A   Clear
1:15 AM 53.6 °F 46.4 °F 77% 29.95 in 10.0 mi Calm Calm - N/A   Clear
1:35 AM 51.8 °F 46.4 °F 82% 29.95 in 10.0 mi Calm Calm - N/A   Clear
1:55 AM 51.8 °F 50.0 °F 94% 29.95 in 10.0 mi Calm Calm - N/A   Clear
2:15 AM 50.0 °F 50.0 °F 100% 29.95 in 10.0 mi Calm Calm - N/A   Clear
2:35 AM 50.0 °F 50.0 °F 100% 29.94 in 10.0 mi Calm Calm - N/A   Clear
2:55 AM 50.0 °F 50.0 °F 100% 29.94 in 10.0 mi Calm Calm - N/A   Clear
3:15 AM 50.0 °F 50.0 °F 100% 29.94 in 10.0 mi Calm Calm - N/A   Clear
3:35 AM 50.0 °F 50.0 °F 100% 29.94 in 10.0 mi Calm Calm - N/A   Clear
3:55 AM 50.0 °F 50.0 °F 100% 29.95 in 10.0 mi Calm Calm - N/A   Clear
4:15 AM 50.0 °F 50.0 °F 100% 29.96 in 10.0 mi WNW 3.5 mph - N/A   Clear
4:35 AM 48.2 °F 48.2 °F 100% 29.96 in 10.0 mi Calm Calm - N/A   Clear
4:55 AM 48.2 °F 48.2 °F 100% 29.96 in 10.0 mi Calm Calm - N/A   Clear
5:15 AM 48.2 °F 48.2 °F 100% 29.97 in 10.0 mi Calm Calm - N/A   Clear
5:35 AM 48.2 °F 48.2 °F 100% 29.97 in 10.0 mi Calm Calm - N/A   Clear
5:55 AM 48.2 °F 48.2 °F 100% 29.98 in 10.0 mi Calm Calm - N/A   Clear
6:15 AM 48.2 °F 48.2 °F 100% 29.99 in 10.0 mi Calm Calm - N/A   Clear
6:35 AM 48.2 °F 48.2 °F 100% 30.00 in 10.0 mi Calm Calm - N/A   Clear
6:55 AM 46.4 °F 46.4 °F 100% 30.01 in 10.0 mi Calm Calm - N/A   Clear
7:15 AM 46.4 °F 46.4 °F 100% 30.02 in 7.0 mi Calm Calm - N/A   Clear
7:35 AM 48.2 °F 48.2 °F 100% 30.03 in 10.0 mi Calm Calm - N/A   Clear
7:55 AM 50.0 °F 50.0 °F 100% 30.04 in 10.0 mi Calm Calm - N/A   Clear
8:15 AM 53.6 °F 53.6 °F 100% 30.04 in 10.0 mi Calm Calm - N/A   Clear
8:35 AM 57.2 °F 55.4 °F 94% 30.04 in 10.0 mi Calm Calm - N/A   Clear
8:55 AM 59.0 °F 41.0 °F 51% 30.04 in 10.0 mi Calm Calm - N/A   Clear
9:15 AM 62.6 °F 39.2 °F 42% 30.04 in 10.0 mi Calm Calm - N/A   Clear
9:35 AM 62.6 °F 37.4 °F 39% 30.05 in 10.0 mi Calm Calm - N/A   Clear
9:55 AM 66.2 °F 35.6 °F 32% 30.04 in 10.0 mi ENE 3.5 mph - N/A   Clear
10:15 AM 68.0 °F 33.8 °F 28% 30.05 in 10.0 mi Calm Calm - N/A   Clear
10:35 AM 69.8 °F 32.0 °F 25% 30.06 in 7.0 mi Calm Calm - N/A   Clear
10:55 AM 71.6 °F 32.0 °F 23% 30.06 in 10.0 mi Calm Calm - N/A   Clear
11:15 AM 73.4 °F 30.2 °F 20% 30.06 in 10.0 mi Calm Calm - N/A   Clear
11:35 AM 73.4 °F 30.2 °F 20% 30.05 in 10.0 mi East 3.5 mph - N/A   Clear
11:55 AM 77.0 °F 32.0 °F 19% 30.04 in 10.0 mi Calm Calm - N/A   Clear
12:15 PM 77.0 °F 30.2 °F 18% 30.04 in 10.0 mi Calm Calm - N/A   Clear
12:35 PM 78.8 °F 32.0 °F 18% 30.04 in 10.0 mi East 4.6 mph - N/A   Clear
12:55 PM 78.8 °F 26.6 °F 15% 30.03 in 10.0 mi ENE 4.6 mph - N/A   Clear
1:15 PM 80.6 °F 24.8 °F 13% 30.02 in 10.0 mi East 3.5 mph - N/A   Clear
1:35 PM 80.6 °F 14.0 °F 8% 30.00 in 10.0 mi ENE 4.6 mph - N/A   Clear
1:55 PM 80.6 °F 19.4 °F 10% 29.99 in 10.0 mi NE 3.5 mph - N/A   Clear
2:15 PM 80.6 °F 23.0 °F 12% 29.98 in 10.0 mi North 3.5 mph - N/A   Clear
2:35 PM 82.4 °F 19.4 °F 10% 29.97 in 10.0 mi NE 4.6 mph - N/A   Clear
2:55 PM 82.4 °F 21.2 °F 10% 29.97 in 10.0 mi Calm Calm - N/A   Clear
3:15 PM 82.4 °F 23.0 °F 11% 29.96 in 10.0 mi Calm Calm - N/A   Clear
3:35 PM 82.4 °F 21.2 °F 10% 29.95 in 10.0 mi Calm Calm - N/A   Clear
3:55 PM 82.4 °F 23.0 °F 11% 29.95 in 10.0 mi NE 3.5 mph - N/A   Scattered Clouds
4:15 PM 84.2 °F 21.2 °F 10% 29.94 in 10.0 mi East 3.5 mph - N/A   Mostly Cloudy
4:35 PM 82.4 °F 23.0 °F 11% 29.93 in 10.0 mi Calm Calm - N/A   Scattered Clouds
4:55 PM 86.0 °F 21.2 °F 9% 29.94 in 10.0 mi West 4.6 mph - N/A   Scattered Clouds
5:15 PM 86.0 °F 23.0 °F 10% 29.94 in 10.0 mi Calm Calm - N/A   Scattered Clouds
5:35 PM 84.2 °F 21.2 °F 10% 29.94 in 10.0 mi WSW 3.5 mph - N/A   Clear
5:55 PM 84.2 °F 23.0 °F 11% 29.94 in 10.0 mi West 6.9 mph - N/A   Scattered Clouds
6:15 PM 82.4 °F 23.0 °F 11% 29.94 in 10.0 mi Calm Calm - N/A   Clear
6:35 PM 80.6 °F 30.2 °F 16% 29.94 in 10.0 mi Calm Calm - N/A   Clear
6:55 PM 80.6 °F 33.8 °F 18% 29.92 in 10.0 mi Calm Calm - N/A   Clear
7:15 PM 78.8 °F 37.4 °F 23% 29.92 in 10.0 mi Calm Calm - N/A   Clear
7:35 PM 77.0 °F 42.8 °F 29% 29.92 in 10.0 mi Calm Calm - N/A   Scattered Clouds
7:55 PM 73.4 °F 46.4 °F 38% 29.92 in 10.0 mi Calm Calm - N/A   Mostly Cloudy
8:15 PM 71.6 °F 50.0 °F 46% 29.91 in 10.0 mi Calm Calm - N/A   Scattered Clouds
8:35 PM 69.8 °F 50.0 °F 49% 29.91 in 10.0 mi Calm Calm - N/A   Clear
8:55 PM 68.0 °F 50.0 °F 52% 29.92 in 10.0 mi Calm Calm - N/A   Clear
9:15 PM 68.0 °F 50.0 °F 52% 29.92 in 10.0 mi Calm Calm - N/A   Clear
9:35 PM 64.4 °F 50.0 °F 59% 29.92 in 10.0 mi Calm Calm - N/A   Clear
9:55 PM 64.4 °F 50.0 °F 59% 29.93 in 10.0 mi Calm Calm - N/A   Clear
10:15 PM 64.4 °F 50.0 °F 59% 29.94 in 10.0 mi Calm Calm - N/A   Clear
10:35 PM 62.6 °F 51.8 °F 68% 29.93 in 10.0 mi Calm Calm - N/A   Clear
10:55 PM 62.6 °F 51.8 °F 68% 29.92 in 10.0 mi Calm Calm - N/A   Clear
11:15 PM 62.6 °F 51.8 °F 68% 29.93 in 10.0 mi Calm Calm - N/A   Clear
11:35 PM 62.6 °F 53.6 °F 72% 29.92 in 10.0 mi Calm Calm - N/A   Clear
11:55 PM 60.8 °F 55.4 °F 82% 29.92 in 10.0 mi Calm Calm - N/A   Clear